South Lake Tahoe, CA

10:20 PM PDT on August 23, 2017 (GMT -0700)
Lake Tahoe

Weather History for KTVL - June, 2014

Change the Weather History Date:

Monday, June 9, 2014

  Actual Average Record
Temperature  
Mean Temperature 63 °F 53 °F  
Max Temperature 84 °F 70 °F 85 °F (2013)
Min Temperature 41 °F 36 °F 21 °F (1988)
Degree Days  
Heating Degree Days 2 12  
Month to date heating degree days 61 115  
Since 1 June heating degree days 61 115  
Since 1 July heating degree days 6556 7537  
Cooling Degree Days 0 0  
Month to date cooling degree days 0 0  
Year to date cooling degree days 0 0  
Since 1 June cooling degree days 0 0  
Growing Degree Days 12 (Base 50)    
Moisture  
Dew Point 34 °F    
Average Humidity 42    
Maximum Humidity 73    
Minimum Humidity 10    
Precipitation  
Precipitation 0.00 in - 0.45 in (1970)
Month to date precipitation 0.00  
Year to date precipitation 12.40  
Sea Level Pressure  
Sea Level Pressure 29.93 in    
Wind  
Wind Speed 3 mph (South)    
Max Wind Speed 20 mph    
Max Gust Speed 30 mph    
Visibility 10 miles    
Events      
T = Trace of Precipitation, MM = Missing Value Source: NWS Daily Summary

Daily Weather History Graph

Daily Weather History Graph

Search for Another Location

Airport or City:

Trip Planner

Search our weather history database for the weather conditions in past years. The results will help you decide how hot, cold, wet, or windy it might be!

Date:

Astronomy

Jun. 09, 2014 Rise Set
Actual Time 5:34 AM PDT 8:24 PM PDT
Civil Twilight 5:02 AM PDT 8:56 PM PDT
Nautical Twilight 4:22 AM PDT 9:36 PM PDT
Astronomical Twilight 3:36 AM PDT 10:22 PM PDT
Moon 4:52 PM PDT (6/9) 3:02 AM PDT (6/9)
Length of Visible Light 15h 53m
Length of Day
14h 50m
Waxing Gibbous, 86% of the Moon is Illuminated
Jun 9
Waxing Gibbous
Jun 12
Full
Jun 19
Last Quarter
Jun 27
New
Jul 5
First Quarter

Hourly Weather History & Observations

Time (PDT) Temp. Windchill Dew Point Humidity Pressure Visibility Wind Dir Wind Speed Gust Speed Precip Events Conditions
12:53 AM 50.0 °F - 37.9 °F 63% 29.99 in 10.0 mi Calm Calm - N/A   Clear
1:53 AM 48.0 °F - 37.9 °F 68% 29.98 in 10.0 mi Calm Calm - N/A   Clear
2:53 AM 46.0 °F 44.8 °F 37.0 °F 71% 29.98 in 10.0 mi SSW 3.5 mph - N/A   Clear
3:53 AM 44.1 °F 42.5 °F 35.1 °F 71% 29.97 in 10.0 mi SSW 3.5 mph - N/A   Clear
4:53 AM 43.0 °F - 34.0 °F 71% 29.97 in 10.0 mi Calm Calm - N/A   Clear
5:53 AM 41.0 °F - 33.1 °F 73% 29.99 in 10.0 mi Calm Calm - N/A   Clear
6:53 AM 45.0 °F 43.5 °F 35.1 °F 68% 29.99 in 10.0 mi South 3.5 mph - N/A   Clear
8:53 AM 68.0 °F - 34.0 °F 28% 29.95 in 10.0 mi East 3.5 mph - N/A   Clear
9:53 AM 73.9 °F - 33.1 °F 22% 29.94 in 10.0 mi ENE 5.8 mph - N/A   Clear
10:53 AM 75.9 °F - 39.0 °F 26% 29.93 in 10.0 mi NNE 9.2 mph - N/A   Clear
1:53 PM 84.0 °F - 25.0 °F 12% 29.90 in 10.0 mi SSW 9.2 mph 21.9 mph N/A   Clear
2:53 PM 84.0 °F - 27.0 °F 13% 29.89 in 10.0 mi SSW 9.2 mph 19.6 mph N/A   Clear
3:53 PM 82.9 °F - 27.0 °F 13% 29.88 in 10.0 mi SSW 9.2 mph 25.3 mph N/A   Clear
4:53 PM 82.0 °F - 30.0 °F 15% 29.88 in 10.0 mi Variable 6.9 mph - N/A   Clear
5:53 PM 80.1 °F - 32.0 °F 17% 29.89 in 10.0 mi Variable 6.9 mph - N/A   Clear
6:53 PM 77.0 °F - 30.9 °F 19% 29.89 in 10.0 mi Variable 4.6 mph - N/A   Clear
7:53 PM 70.0 °F - 34.0 °F 27% 29.88 in 10.0 mi Calm Calm - N/A   Clear
8:53 PM 64.9 °F - 35.1 °F 33% 29.87 in 10.0 mi Calm Calm - N/A   Clear
9:53 PM 61.0 °F - 36.0 °F 39% 29.88 in 10.0 mi Calm Calm - N/A   Clear
10:53 PM 57.0 °F - 37.0 °F 47% 29.89 in 10.0 mi South 5.8 mph - N/A   Clear
11:53 PM 55.0 °F - 37.9 °F 53% 29.89 in 10.0 mi South 4.6 mph - N/A   Clear